Showing default

SBS 5, 19484

Orbit data source: Space-Track

SBS 5, 19484 is a payload satellite owned by IBM STLC (US) in GEO that was launched on Thu, 08 Sep 1988 UTC via an ARIANE 3 launch vehicle from the French Guiana (FRGUI). Payload-class satellites include a variety of spacecraft equipped with specific instruments for various scientific and technological missions. These include communications satellites like Starlink; space stations such as the ISS; scientific satellites like the Hubble; Earth observation satellites from companies like Planet Labs, Umbra, and HawkEye 360; GPS; miniature CubeSats for education and research; and military/defense satellites.

Loading next visibility...
Identifier
19484, 1988-081B
Orbit
GEO
Country
Flag of USUS
Related business
Manufacturer
Hughes
Mission
Commercial Communications
Bus & Motor
HS-376, TE-M-700-17
Mass
1,246 kg wet, ~550 kg dry
Launch date (UTC)
1988-09-08 (38 years ago)
Launch vehicle
ARIANE 3
Launch site
French Guiana (FRGUI)
Object type
Payload
Rocket body
Debris
Shape & HBR
Cyl + 2 Pan, 3.3 m
Radar Cross Section
15.596 m², Large (>1 m²)

Expand to show TLE details & history
Last TLE update: 7 hours ago

TLE from 7 hours ago
0 SBS 5
1 19484U 88081B   26124.12128016 -.00000165  00000-0  00000+0 0  9999
2 19484  14.5955   1.2663 0007451 326.9809 212.8252  0.99786337 46025
Epoch: 2026-05-04T02:54Z
TLE epoch observation values (Epoch: 2026-05-04T02:54:38.605Z)
Latitude
0.04669°
Longitude
-84.62843°
Altitude
35,949.184 km
Speed
3.068 km/s
True Right ascension
12h 04m 11s
True Declination
0° 02' 48"
Sunlit
Object was in daylight at epoch
Visualization orbit readout
Latitude
Unknown
Longitude
Unknown
Altitude
Unknown
Speed
Unknown
Apparent Right ascension
Unknown
Apparent Declination
Unknown
Sunlit
N/A
Visualization observer readout
Local Sidereal Time
17:41:44
Azimuth
Unknown
Elevation
Unknown
Doppler factor
Unknown
Orbital elements
Apogee altitude
35,955.722 km
Perigee altitude
35,892.684 km
Semi-major axis
42,302.34 km
Eccentricity
0.00075
Inclination
14.5955°
RAAN
1.2663°
Arg. of periapsis
326.9809°
True anomaly
212.77895°
Mean anomaly
212.8252°
Eccentric anomaly
212.80207°
Mean motion
0.24946 °/min
Orbital period
1,443.13 mins
BSTAR
0
Loading maneuver chart data...
Computing Atmospheric mass density...
Loading historical data...
Loading historical data...
Loading historical data...
Loading historical data...
Loading historical data...
Loading historical data...
Loading historical data...

Documentation

Showing up to 5 results
|